ROU1986 CYYZ-CYQM

Flight info

Callsign ROU1986
Flight time N/A
Altitude 37000
Route DEDKI5 OLABA Q951 TALNO Q929 TOXAL DCT DANOL Q951 PUXOP
Aircraft A321/M-SDE3FGHIRWY/LB1

Departure

Time N/A
Airport Toronto Pearson International Airport (CYYZ)

Arrival

Time 2026-05-08 21:14
Airport Greater Moncton Roméo LeBlanc International Airport (CYQM)
Time Latitude Longitude Altitude Speed Heading
2026-05-08 20:55 45.95558 -66.37571 25040 ft 415 kts 75°
2026-05-08 20:55 45.96214 -66.33606 24623 ft 409 kts 75°
2026-05-08 20:55 45.96874 -66.29608 24123 ft 406 kts 75°
2026-05-08 20:56 45.97518 -66.25696 23613 ft 402 kts 75°
2026-05-08 20:56 45.98166 -66.21760 23094 ft 399 kts 75°
2026-05-08 20:56 45.98799 -66.17904 22587 ft 396 kts 75°
2026-05-08 20:56 45.99428 -66.14072 22115 ft 392 kts 75°
2026-05-08 20:57 46.00046 -66.10289 21659 ft 388 kts 75°
2026-05-08 20:57 46.00658 -66.06535 21201 ft 385 kts 75°
2026-05-08 20:57 46.01265 -66.02805 20732 ft 383 kts 76°
2026-05-08 20:57 46.01863 -65.99127 20279 ft 380 kts 76°
2026-05-08 20:58 46.02462 -65.95428 19835 ft 377 kts 76°
2026-05-08 20:58 46.03051 -65.91785 19387 ft 374 kts 76°
2026-05-08 20:58 46.03635 -65.88162 18932 ft 372 kts 76°
2026-05-08 20:58 46.04214 -65.84567 18498 ft 370 kts 76°
2026-05-08 20:59 46.04787 -65.80995 18052 ft 368 kts 76°
2026-05-08 20:59 46.05358 -65.77432 17637 ft 366 kts 76°
2026-05-08 20:59 46.05924 -65.73889 17213 ft 363 kts 76°
2026-05-08 20:59 46.06494 -65.70320 16788 ft 361 kts 76°
2026-05-08 21:00 46.07044 -65.66864 16380 ft 359 kts 76°
2026-05-08 21:00 46.07602 -65.63351 15963 ft 356 kts 76°
2026-05-08 21:00 46.08146 -65.59921 15555 ft 354 kts 75°
2026-05-08 21:00 46.08695 -65.56457 15150 ft 352 kts 76°
2026-05-08 21:01 46.09232 -65.53059 14742 ft 350 kts 76°
2026-05-08 21:01 46.09769 -65.49648 14318 ft 348 kts 76°
2026-05-08 21:01 46.10300 -65.46272 13898 ft 346 kts 76°
2026-05-08 21:01 46.10829 -65.42897 13487 ft 344 kts 75°
2026-05-08 21:02 46.11350 -65.39564 13060 ft 342 kts 75°
2026-05-08 21:02 46.11874 -65.36208 12638 ft 340 kts 75°
2026-05-08 21:02 46.12387 -65.32917 12215 ft 338 kts 76°
2026-05-08 21:02 46.12906 -65.29586 11793 ft 335 kts 76°
2026-05-08 21:03 46.13409 -65.26344 11373 ft 333 kts 76°
2026-05-08 21:03 46.13910 -65.23115 10973 ft 330 kts 76°
2026-05-08 21:03 46.14413 -65.19862 10555 ft 328 kts 75°
2026-05-08 21:03 46.14903 -65.16681 10267 ft 320 kts 75°
2026-05-08 21:04 46.15371 -65.13636 10160 ft 306 kts 75°
2026-05-08 21:04 46.15821 -65.10699 10077 ft 293 kts 75°
2026-05-08 21:04 46.16250 -65.07896 9859 ft 288 kts 75°
2026-05-08 21:04 46.16682 -65.05089 9491 ft 288 kts 75°
2026-05-08 21:05 46.17117 -65.02249 9132 ft 286 kts 75°
2026-05-08 21:05 46.17542 -64.99476 8794 ft 284 kts 75°
2026-05-08 21:05 46.17965 -64.96704 8445 ft 283 kts 75°
2026-05-08 21:05 46.18383 -64.93951 8111 ft 281 kts 75°
2026-05-08 21:06 46.18800 -64.91215 7784 ft 279 kts 75°
2026-05-08 21:06 46.19212 -64.88499 7457 ft 277 kts 75°
2026-05-08 21:06 46.19624 -64.85771 7121 ft 275 kts 75°
2026-05-08 21:06 46.20031 -64.83078 6791 ft 274 kts 75°
2026-05-08 21:07 46.20433 -64.80405 6468 ft 272 kts 75°
2026-05-08 21:07 46.20838 -64.77722 6130 ft 277 kts 75°
2026-05-08 21:07 46.21247 -64.75004 5791 ft 274 kts 75°
2026-05-08 21:07 46.21652 -64.72318 5478 ft 272 kts 75°
2026-05-08 21:08 46.22041 -64.69704 5137 ft 260 kts 75°
2026-05-08 21:08 46.22414 -64.67198 4816 ft 248 kts 75°
2026-05-08 21:08 46.22763 -64.64845 4542 ft 235 kts 75°
2026-05-08 21:08 46.23099 -64.62593 4250 ft 224 kts 75°
2026-05-08 21:09 46.23422 -64.60416 3982 ft 218 kts 75°
2026-05-08 21:09 46.23739 -64.58292 3731 ft 217 kts 75°
2026-05-08 21:09 46.24046 -64.56199 3627 ft 210 kts 77°
2026-05-08 21:09 46.23937 -64.54131 3483 ft 205 kts 113°
2026-05-08 21:10 46.22961 -64.52776 3160 ft 195 kts 156°
2026-05-08 21:10 46.21685 -64.52469 3014 ft 185 kts 187°
2026-05-08 21:10 46.20478 -64.53036 3010 ft 183 kts 214°
2026-05-08 21:10 46.19606 -64.54308 2870 ft 170 kts 241°
2026-05-08 21:11 46.19078 -64.55771 2528 ft 161 kts 248°
2026-05-08 21:11 46.18612 -64.57190 2147 ft 154 kts 248°
2026-05-08 21:11 46.18159 -64.58542 1857 ft 144 kts 247°
2026-05-08 21:11 46.17701 -64.59833 1652 ft 145 kts 240°
2026-05-08 21:12 46.17075 -64.60960 1479 ft 147 kts 229°
2026-05-08 21:12 46.16327 -64.61987 1252 ft 147 kts 223°
2026-05-08 21:12 46.15554 -64.62947 1044 ft 147 kts 222°
2026-05-08 21:12 46.14772 -64.63893 844 ft 147 kts 222°
2026-05-08 21:13 46.14000 -64.64874 673 ft 146 kts 225°
2026-05-08 21:13 46.13277 -64.65884 490 ft 147 kts 225°
2026-05-08 21:13 46.12528 -64.66892 241 ft 146 kts 223°
2026-05-08 21:13 46.11817 -64.67831 189 ft 126 kts 221°
2026-05-08 21:14 46.11379 -64.68405 205 ft 44 kts 223°
2026-05-08 21:14 46.11323 -64.68556 207 ft 13 kts 308°
2026-05-08 21:14 46.11391 -64.68658 204 ft 13 kts 323°
2026-05-08 21:14 46.11463 -64.68678 202 ft 11 kts 330°
2026-05-08 21:15 46.11521 -64.68750 201 ft 6 kts 314°
2026-05-08 21:15 46.11547 -64.68788 200 ft 2 kts 315°
2026-05-08 21:15 46.11551 -64.68794 200 ft 0 kts 315°